Time,TemperatureF,DewpointF,PressureIn,WindDirection,WindDirectionDegrees,WindSpeedMPH,WindSpeedGustMPH,Humidity,HourlyPrecipIn,Conditions,Clouds,dailyrainin,SoftwareType,DateUTC
2014-01-09 00:00:00,45.3,44.2,32.28,ESE,103,5.0,10.0,96,0.01,,SKC,0.04,VWS V14.01,2014-01-09 06:00:00,
2014-01-09 00:06:00,45.3,44.2,32.28,ESE,105,4.0,5.0,96,0.00,,SKC,0.00,VWS V14.01,2014-01-09 06:06:00,
2014-01-09 00:12:00,45.3,44.2,32.28,ESE,110,4.0,8.0,96,0.00,,SKC,0.00,VWS V14.01,2014-01-09 06:12:00,
2014-01-09 00:18:00,45.2,44.1,32.28,ESE,103,5.0,8.0,96,0.00,,SKC,0.00,VWS V14.01,2014-01-09 06:18:00,
2014-01-09 00:24:00,45.2,44.1,32.28,ESE,112,3.0,8.0,96,0.00,,SKC,0.00,VWS V14.01,2014-01-09 06:24:00,
2014-01-09 00:30:00,45.2,44.1,32.28,ESE,112,4.0,8.0,96,0.00,,SKC,0.00,VWS V14.01,2014-01-09 06:30:00,
2014-01-09 00:36:00,45.2,44.1,32.28,ESE,118,1.0,5.0,96,0.00,,SKC,0.00,VWS V14.01,2014-01-09 06:36:00,
2014-01-09 00:42:00,44.7,43.6,32.28,East,94,2.0,6.0,96,0.00,,SKC,0.00,VWS V14.01,2014-01-09 06:42:00,
2014-01-09 00:48:00,44.0,42.7,32.28,ESE,103,4.0,8.0,95,0.00,,SKC,0.00,VWS V14.01,2014-01-09 06:48:00,
2014-01-09 00:54:00,43.6,42.5,32.28,ESE,105,7.0,8.0,96,0.00,,SKC,0.00,VWS V14.01,2014-01-09 06:54:00,
2014-01-09 01:00:00,43.5,42.4,32.28,ESE,108,2.0,8.0,96,0.00,,SKC,0.00,VWS V14.01,2014-01-09 07:00:00,
2014-01-09 01:06:00,43.4,42.3,32.28,East,81,5.0,5.0,96,0.00,,SKC,0.00,VWS V14.01,2014-01-09 07:06:00,
2014-01-09 01:12:00,43.4,42.3,32.28,East,88,5.0,7.0,96,0.00,,SKC,0.00,VWS V14.01,2014-01-09 07:12:00,
2014-01-09 01:18:00,43.3,42.2,32.28,East,93,1.0,8.0,96,0.00,,SKC,0.00,VWS V14.01,2014-01-09 07:18:00,
2014-01-09 01:24:00,43.3,42.2,32.28,ESE,105,2.0,8.0,96,0.00,,SKC,0.00,VWS V14.01,2014-01-09 07:24:00,
2014-01-09 01:30:00,43.3,42.2,32.28,East,85,5.0,8.0,96,0.00,,SKC,0.00,VWS V14.01,2014-01-09 07:30:00,
2014-01-09 01:36:00,43.2,42.1,32.28,East,87,2.0,5.0,96,0.01,,SKC,0.01,VWS V14.01,2014-01-09 07:36:00,
2014-01-09 01:42:00,43.2,42.1,32.28,East,88,1.0,6.0,96,0.02,,SKC,0.02,VWS V14.01,2014-01-09 07:42:00,
2014-01-09 01:48:00,43.2,42.1,32.28,East,88,0.0,6.0,96,0.02,,SKC,0.02,VWS V14.01,2014-01-09 07:48:00,
2014-01-09 01:54:00,42.7,41.6,32.28,East,87,3.0,6.0,96,0.02,,SKC,0.02,VWS V14.01,2014-01-09 07:54:00,
2014-01-09 02:00:00,42.2,41.1,32.28,NE,54,2.0,6.0,96,0.03,,SKC,0.03,VWS V14.01,2014-01-09 08:00:00,
2014-01-09 02:06:00,41.2,39.9,32.28,ENE,61,3.0,4.0,95,0.03,,SKC,0.03,VWS V14.01,2014-01-09 08:06:00,
2014-01-09 02:12:00,40.5,39.2,32.28,East,93,3.0,5.0,95,0.03,,SKC,0.03,VWS V14.01,2014-01-09 08:12:00,
2014-01-09 02:18:00,40.2,38.9,32.28,ENE,70,1.0,8.0,95,0.05,,SKC,0.05,VWS V14.01,2014-01-09 08:18:00,
2014-01-09 02:24:00,40.0,39.0,32.28,ENE,58,2.0,8.0,96,0.06,,SKC,0.06,VWS V14.01,2014-01-09 08:24:00,
2014-01-09 02:30:00,39.8,38.5,32.28,ENE,59,1.0,8.0,95,0.07,,SKC,0.07,VWS V14.01,2014-01-09 08:30:00,
2014-01-09 02:36:00,39.5,38.5,32.28,NE,48,1.0,4.0,96,0.07,,SKC,0.07,VWS V14.01,2014-01-09 08:36:00,
2014-01-09 02:42:00,39.3,38.0,32.28,ENE,57,4.0,5.0,95,0.07,,SKC,0.07,VWS V14.01,2014-01-09 08:42:00,
2014-01-09 02:48:00,39.1,38.1,32.28,NE,38,3.0,5.0,96,0.08,,SKC,0.08,VWS V14.01,2014-01-09 08:48:00,
2014-01-09 02:54:00,38.9,37.9,32.28,East,79,1.0,5.0,96,0.08,,SKC,0.08,VWS V14.01,2014-01-09 08:54:00,
2014-01-09 03:00:00,38.9,37.9,32.28,East,84,1.0,6.0,96,0.08,,SKC,0.08,VWS V14.01,2014-01-09 09:00:00,
2014-01-09 03:06:00,38.9,37.9,32.28,East,92,3.0,8.0,96,0.05,,SKC,0.08,VWS V14.01,2014-01-09 09:06:00,
2014-01-09 03:12:00,38.8,37.8,32.28,East,92,5.0,8.0,96,0.05,,SKC,0.08,VWS V14.01,2014-01-09 09:12:00,
2014-01-09 03:18:00,38.7,37.7,32.28,East,92,5.0,8.0,96,0.05,,SKC,0.08,VWS V14.01,2014-01-09 09:18:00,
2014-01-09 03:24:00,38.6,37.6,32.28,East,94,3.0,9.0,96,0.05,,SKC,0.08,VWS V14.01,2014-01-09 09:24:00,
2014-01-09 03:30:00,38.5,37.5,32.28,East,94,5.0,9.0,96,0.05,,SKC,0.08,VWS V14.01,2014-01-09 09:30:00,
2014-01-09 03:36:00,38.5,37.5,32.28,East,101,5.0,8.0,96,0.01,,SKC,0.08,VWS V14.01,2014-01-09 09:36:00,
2014-01-09 03:42:00,38.6,37.6,32.28,ENE,76,4.0,10.0,96,0.01,,SKC,0.08,VWS V14.01,2014-01-09 09:42:00,
2014-01-09 03:48:00,38.6,37.6,32.28,ESE,103,1.0,10.0,96,0.01,,SKC,0.08,VWS V14.01,2014-01-09 09:48:00,
2014-01-09 03:54:00,38.5,37.5,32.28,East,96,2.0,10.0,96,0.01,,SKC,0.08,VWS V14.01,2014-01-09 09:54:00,
2014-01-09 04:00:00,38.5,37.5,32.28,East,100,2.0,10.0,96,0.01,,SKC,0.08,VWS V14.01,2014-01-09 10:00:00,
2014-01-09 04:06:00,38.5,37.5,32.28,ESE,115,3.0,10.0,96,0.00,,SKC,0.08,VWS V14.01,2014-01-09 10:06:00,
2014-01-09 04:12:00,38.6,37.6,32.28,East,84,1.0,10.0,96,0.00,,SKC,0.08,VWS V14.01,2014-01-09 10:12:00,
2014-01-09 04:18:00,38.7,37.7,32.28,ESE,103,5.0,10.0,96,0.00,,SKC,0.08,VWS V14.01,2014-01-09 10:18:00,
2014-01-09 04:24:00,38.8,37.8,32.28,SE,134,0.0,10.0,96,0.00,,SKC,0.08,VWS V14.01,2014-01-09 10:24:00,
2014-01-09 04:30:00,38.8,37.8,32.28,ESE,104,3.0,7.0,96,0.00,,SKC,0.08,VWS V14.01,2014-01-09 10:30:00,
2014-01-09 04:31:00,38.9,37.9,32.28,ESE,106,1.0,10.0,96,0.00,,SKC,0.08,VWS V14.01,2014-01-09 10:31:00,
2014-01-09 04:37:00,39.0,38.0,32.28,East,90,1.0,6.0,96,0.00,,SKC,0.08,VWS V14.01,2014-01-09 10:37:00,
2014-01-09 04:43:00,39.1,38.1,32.28,ESE,118,1.0,8.0,96,0.00,,SKC,0.08,VWS V14.01,2014-01-09 10:43:00,
2014-01-09 04:49:00,39.0,38.0,32.28,East,93,1.0,8.0,96,0.00,,SKC,0.08,VWS V14.01,2014-01-09 10:49:00,
2014-01-09 04:55:00,39.0,38.0,32.28,East,96,2.0,8.0,96,0.00,,SKC,0.08,VWS V14.01,2014-01-09 10:55:00,
2014-01-09 05:00:00,38.5,37.5,32.28,East,101,5.0,9.0,96,0.00,,SKC,0.08,VWS V14.01,2014-01-09 11:00:00,
2014-01-09 05:01:00,39.0,38.0,32.28,East,84,2.0,8.0,96,0.00,,SKC,0.08,VWS V14.01,2014-01-09 11:01:00,
2014-01-09 05:07:00,39.1,38.1,32.28,East,97,0.0,5.0,96,0.00,,SKC,0.08,VWS V14.01,2014-01-09 11:07:00,
2014-01-09 05:13:00,39.1,38.1,32.28,East,88,0.0,5.0,96,0.00,,SKC,0.08,VWS V14.01,2014-01-09 11:13:00,
2014-01-09 05:19:00,39.1,38.1,32.28,ESE,107,1.0,6.0,96,0.00,,SKC,0.08,VWS V14.01,2014-01-09 11:19:00,
2014-01-09 05:25:00,39.0,38.0,32.28,East,87,2.0,6.0,96,0.00,,SKC,0.08,VWS V14.01,2014-01-09 11:25:00,
2014-01-09 05:30:00,38.2,37.2,32.28,East,92,3.0,10.0,96,0.00,,SKC,0.08,VWS V14.01,2014-01-09 11:30:00,
2014-01-09 05:31:00,38.9,37.9,32.28,East,101,5.0,7.0,96,0.00,,SKC,0.08,VWS V14.01,2014-01-09 11:31:00,
2014-01-09 05:37:00,38.7,37.7,32.28,East,101,2.0,9.0,96,0.00,,SKC,0.08,VWS V14.01,2014-01-09 11:37:00,
2014-01-09 05:43:00,38.7,37.7,32.28,East,101,3.0,9.0,96,0.00,,SKC,0.08,VWS V14.01,2014-01-09 11:43:00,
2014-01-09 05:49:00,38.7,37.7,32.28,East,84,3.0,9.0,96,0.00,,SKC,0.08,VWS V14.01,2014-01-09 11:49:00,
2014-01-09 05:55:00,38.6,37.6,32.28,East,98,5.0,9.0,96,0.00,,SKC,0.08,VWS V14.01,2014-01-09 11:55:00,
2014-01-09 06:00:00,38.2,37.2,32.28,East,90,1.0,9.0,96,0.00,,SKC,0.08,VWS V14.01,2014-01-09 12:00:00,
2014-01-09 06:01:00,38.5,37.5,32.28,East,96,6.0,9.0,96,0.00,,SKC,0.08,VWS V14.01,2014-01-09 12:01:00,
2014-01-09 06:07:00,38.5,37.5,32.28,ESE,117,3.0,9.0,96,0.00,,SKC,0.08,VWS V14.01,2014-01-09 12:07:00,
2014-01-09 06:13:00,38.4,37.4,32.28,ESE,109,3.0,10.0,96,0.00,,SKC,0.08,VWS V14.01,2014-01-09 12:13:00,
2014-01-09 06:19:00,38.4,37.4,32.28,East,89,3.0,10.0,96,0.00,,SKC,0.08,VWS V14.01,2014-01-09 12:19:00,
2014-01-09 06:25:00,38.3,37.3,32.28,East,86,5.0,10.0,96,0.00,,SKC,0.08,VWS V14.01,2014-01-09 12:25:00,
2014-01-09 06:30:00,38.2,37.2,32.28,ENE,65,1.0,8.0,96,0.00,,SKC,0.08,VWS V14.01,2014-01-09 12:30:00,
2014-01-09 06:31:00,38.3,37.3,32.28,East,101,2.0,10.0,96,0.00,,SKC,0.08,VWS V14.01,2014-01-09 12:31:00,
2014-01-09 06:37:00,38.2,37.2,32.28,ESE,111,4.0,7.0,96,0.00,,SKC,0.08,VWS V14.01,2014-01-09 12:37:00,
2014-01-09 06:43:00,38.2,37.2,32.28,ESE,104,9.0,9.0,96,0.00,,SKC,0.08,VWS V14.01,2014-01-09 12:43:00,
2014-01-09 06:49:00,38.2,37.2,32.28,East,96,1.0,9.0,96,0.00,,SKC,0.08,VWS V14.01,2014-01-09 12:49:00,
2014-01-09 06:55:00,38.2,37.2,32.28,East,91,5.0,9.0,96,0.00,,SKC,0.08,VWS V14.01,2014-01-09 12:55:00,
2014-01-09 07:00:00,38.3,37.3,32.28,East,87,2.0,6.0,96,0.00,,SKC,0.08,VWS V14.01,2014-01-09 13:00:00,
2014-01-09 07:01:00,38.2,37.2,32.28,East,101,1.0,9.0,96,0.00,,SKC,0.08,VWS V14.01,2014-01-09 13:01:00,
2014-01-09 07:07:00,38.1,37.1,32.28,East,82,3.0,8.0,96,0.00,,SKC,0.08,VWS V14.01,2014-01-09 13:07:00,
2014-01-09 07:13:00,38.1,37.1,32.28,ESE,118,3.0,8.0,96,0.00,,SKC,0.08,VWS V14.01,2014-01-09 13:13:00,
2014-01-09 07:19:00,38.1,37.1,32.28,East,97,7.0,8.0,96,0.00,,SKC,0.08,VWS V14.01,2014-01-09 13:19:00,
2014-01-09 07:25:00,38.2,37.2,32.28,East,84,0.0,8.0,96,0.00,,SKC,0.08,VWS V14.01,2014-01-09 13:25:00,
2014-01-09 07:30:00,38.3,37.3,32.28,East,94,5.0,7.0,96,0.00,,SKC,0.08,VWS V14.01,2014-01-09 13:30:00,
2014-01-09 07:31:00,38.2,37.2,32.28,East,84,1.0,8.0,96,0.00,,SKC,0.08,VWS V14.01,2014-01-09 13:31:00,
2014-01-09 07:37:00,38.2,37.2,32.28,ESE,112,2.0,6.0,96,0.00,,SKC,0.08,VWS V14.01,2014-01-09 13:37:00,
2014-01-09 07:43:00,38.3,37.3,32.28,East,80,2.0,6.0,96,0.00,,SKC,0.08,VWS V14.01,2014-01-09 13:43:00,
2014-01-09 07:49:00,38.3,37.3,32.28,East,83,2.0,6.0,96,0.00,,SKC,0.08,VWS V14.01,2014-01-09 13:49:00,
2014-01-09 07:55:00,38.3,37.3,32.28,East,84,1.0,6.0,96,0.00,,SKC,0.08,VWS V14.01,2014-01-09 13:55:00,
2014-01-09 08:00:00,38.3,37.3,32.28,East,96,2.0,9.0,96,0.00,,SKC,0.08,VWS V14.01,2014-01-09 14:00:00,
2014-01-09 08:01:00,38.3,37.3,32.28,East,84,1.0,6.0,96,0.00,,SKC,0.08,VWS V14.01,2014-01-09 14:01:00,
2014-01-09 08:07:00,38.2,37.2,32.28,East,91,2.0,6.0,96,0.00,,SKC,0.08,VWS V14.01,2014-01-09 14:07:00,
2014-01-09 08:13:00,38.2,37.2,32.28,East,94,0.0,7.0,96,0.00,,SKC,0.08,VWS V14.01,2014-01-09 14:13:00,
2014-01-09 08:19:00,38.3,37.3,32.28,East,94,1.0,7.0,96,0.00,,SKC,0.08,VWS V14.01,2014-01-09 14:19:00,
2014-01-09 08:25:00,38.4,37.4,32.28,East,94,3.0,7.0,96,0.00,,SKC,0.08,VWS V14.01,2014-01-09 14:25:00,
2014-01-09 08:30:00,38.7,37.7,32.28,East,92,0.0,7.0,96,0.00,,SKC,0.08,VWS V14.01,2014-01-09 14:30:00,
2014-01-09 08:31:00,38.3,37.3,32.28,East,94,1.0,7.0,96,0.00,,SKC,0.08,VWS V14.01,2014-01-09 14:31:00,
2014-01-09 08:37:00,38.3,37.3,32.28,East,94,1.0,6.0,96,0.00,,SKC,0.08,VWS V14.01,2014-01-09 14:37:00,
2014-01-09 08:43:00,38.3,37.3,32.28,East,94,2.0,6.0,96,0.00,,SKC,0.08,VWS V14.01,2014-01-09 14:43:00,
2014-01-09 08:49:00,38.3,37.3,32.28,East,94,1.0,6.0,96,0.00,,SKC,0.08,VWS V14.01,2014-01-09 14:49:00,
2014-01-09 08:55:00,38.3,37.3,32.28,East,96,2.0,9.0,96,0.00,,SKC,0.08,VWS V14.01,2014-01-09 14:55:00,
2014-01-09 09:00:00,38.8,37.8,32.28,ENE,64,0.0,7.0,96,0.00,,SKC,0.08,VWS V14.01,2014-01-09 15:00:00,
2014-01-09 09:01:00,38.3,37.3,32.28,East,96,0.0,9.0,96,0.00,,SKC,0.08,VWS V14.01,2014-01-09 15:01:00,
2014-01-09 09:07:00,38.4,37.4,32.28,East,96,2.0,5.0,96,0.00,,SKC,0.08,VWS V14.01,2014-01-09 15:07:00,
2014-01-09 09:13:00,38.4,37.4,32.28,East,96,5.0,7.0,96,0.00,,SKC,0.08,VWS V14.01,2014-01-09 15:13:00,
2014-01-09 09:19:00,38.4,37.4,32.28,East,94,1.0,7.0,96,0.00,,SKC,0.08,VWS V14.01,2014-01-09 15:19:00,
2014-01-09 09:25:00,38.6,37.6,32.28,East,92,2.0,7.0,96,0.00,,SKC,0.08,VWS V14.01,2014-01-09 15:25:00,
2014-01-09 09:30:00,38.9,37.9,32.28,East,90,7.0,9.0,96,0.00,,SKC,0.08,VWS V14.01,2014-01-09 15:30:00,
2014-01-09 09:31:00,38.7,37.7,32.28,East,92,1.0,7.0,96,0.00,,SKC,0.08,VWS V14.01,2014-01-09 15:31:00,
2014-01-09 09:37:00,38.7,37.7,32.28,East,92,1.0,2.0,96,0.00,,SKC,0.08,VWS V14.01,2014-01-09 15:37:00,
2014-01-09 09:43:00,38.8,37.8,32.28,East,92,1.0,3.0,96,0.00,,SKC,0.08,VWS V14.01,2014-01-09 15:43:00,
2014-01-09 09:49:00,38.7,37.7,32.28,East,92,1.0,3.0,96,0.00,,SKC,0.08,VWS V14.01,2014-01-09 15:49:00,
2014-01-09 09:55:00,38.8,37.8,32.28,ENE,63,2.0,7.0,96,0.00,,SKC,0.08,VWS V14.01,2014-01-09 15:55:00,
2014-01-09 10:00:00,39.5,38.7,32.28,East,101,5.0,8.0,97,0.00,,SKC,0.08,VWS V14.01,2014-01-09 16:00:00,
2014-01-09 10:01:00,38.8,37.8,32.28,ENE,64,0.0,7.0,96,0.00,,SKC,0.08,VWS V14.01,2014-01-09 16:01:00,
2014-01-09 10:07:00,38.9,37.9,32.28,East,96,3.0,5.0,96,0.00,,SKC,0.08,VWS V14.01,2014-01-09 16:07:00,
2014-01-09 10:13:00,38.8,37.8,32.28,ENE,69,3.0,5.0,96,0.00,,SKC,0.08,VWS V14.01,2014-01-09 16:13:00,
2014-01-09 10:19:00,38.9,37.9,32.28,East,92,7.0,7.0,96,0.00,,SKC,0.08,VWS V14.01,2014-01-09 16:19:00,
2014-01-09 10:25:00,38.9,37.9,32.28,East,94,0.0,7.0,96,0.00,,SKC,0.08,VWS V14.01,2014-01-09 16:25:00,
2014-01-09 10:30:00,40.2,39.4,32.28,East,92,8.0,9.0,97,0.00,,SKC,0.08,VWS V14.01,2014-01-09 16:30:00,
2014-01-09 10:32:00,38.9,37.9,32.28,East,90,7.0,9.0,96,0.00,,SKC,0.08,VWS V14.01,2014-01-09 16:32:00,
2014-01-09 10:41:00,39.1,38.1,32.28,East,100,1.0,7.0,96,0.00,,SKC,0.08,VWS V14.01,2014-01-09 16:41:00,
2014-01-09 10:48:00,39.1,38.1,32.28,East,100,1.0,7.0,96,0.00,,SKC,0.08,VWS V14.01,2014-01-09 16:48:00,
2014-01-09 10:57:00,39.4,38.6,32.28,East,84,3.0,8.0,97,0.00,,SKC,0.08,VWS V14.01,2014-01-09 16:57:00,
2014-01-09 11:00:00,41.8,41.0,32.28,East,97,3.0,8.0,97,0.00,,SKC,0.08,VWS V14.01,2014-01-09 17:00:00,
2014-01-09 11:03:00,39.6,38.6,32.28,SE,129,5.0,9.0,96,0.00,,SKC,0.08,VWS V14.01,2014-01-09 17:03:00,
2014-01-09 11:10:00,39.8,38.8,32.28,ESE,103,1.0,9.0,96,0.00,,SKC,0.08,VWS V14.01,2014-01-09 17:10:00,
2014-01-09 11:19:00,40.0,39.2,32.28,ESE,109,7.0,9.0,97,0.00,,SKC,0.08,VWS V14.01,2014-01-09 17:19:00,
2014-01-09 11:30:00,42.2,41.4,32.28,East,88,2.0,7.0,97,0.00,,SKC,0.08,VWS V14.01,2014-01-09 17:30:00,
2014-01-09 11:31:00,40.2,39.4,32.28,East,92,8.0,9.0,97,0.00,,SKC,0.08,VWS V14.01,2014-01-09 17:31:00,
2014-01-09 11:38:00,40.5,39.7,32.28,ESE,117,0.0,8.0,97,0.00,,SKC,0.08,VWS V14.01,2014-01-09 17:38:00,
2014-01-09 11:44:00,40.7,39.9,32.28,ESE,112,0.0,8.0,97,0.00,,SKC,0.08,VWS V14.01,2014-01-09 17:44:00,
2014-01-09 12:00:00,41.7,40.9,32.28,NE,49,0.0,8.0,97,0.00,,SKC,0.08,VWS V14.01,2014-01-09 18:00:00,
2014-01-09 12:13:00,42.0,41.2,32.28,East,95,1.0,5.0,97,0.00,,SKC,0.08,VWS V14.01,2014-01-09 18:13:00,
2014-01-09 12:19:00,41.8,41.0,32.28,ESE,104,3.0,6.0,97,0.00,,SKC,0.08,VWS V14.01,2014-01-09 18:19:00,
2014-01-09 12:25:00,41.9,41.1,32.28,East,87,2.0,6.0,97,0.00,,SKC,0.08,VWS V14.01,2014-01-09 18:25:00,
2014-01-09 12:30:00,43.3,42.5,32.28,East,101,0.0,5.0,97,0.00,,SKC,0.08,VWS V14.01,2014-01-09 18:30:00,
2014-01-09 12:31:00,42.1,41.3,32.28,East,84,2.0,7.0,97,0.00,,SKC,0.08,VWS V14.01,2014-01-09 18:31:00,
2014-01-09 12:37:00,42.2,41.4,32.28,East,98,2.0,5.0,97,0.00,,SKC,0.08,VWS V14.01,2014-01-09 18:37:00,
2014-01-09 12:43:00,42.4,41.6,32.28,ESE,103,3.0,5.0,97,0.00,,SKC,0.08,VWS V14.01,2014-01-09 18:43:00,
2014-01-09 12:49:00,42.4,41.6,32.28,East,101,1.0,5.0,97,0.00,,SKC,0.08,VWS V14.01,2014-01-09 18:49:00,
2014-01-09 12:55:00,42.6,41.8,32.28,East,97,1.0,5.0,97,0.00,,SKC,0.08,VWS V14.01,2014-01-09 18:55:00,
2014-01-09 13:00:00,44.2,43.4,32.28,East,101,1.0,5.0,97,0.00,,SKC,0.08,VWS V14.01,2014-01-09 19:00:00,
2014-01-09 13:01:00,42.9,42.1,32.28,ESE,104,0.0,5.0,97,0.00,,SKC,0.08,VWS V14.01,2014-01-09 19:01:00,
2014-01-09 13:07:00,42.9,42.1,32.28,ESE,114,2.0,5.0,97,0.00,,SKC,0.08,VWS V14.01,2014-01-09 19:07:00,
2014-01-09 13:13:00,42.9,42.1,32.28,ESE,102,2.0,5.0,97,0.00,,SKC,0.08,VWS V14.01,2014-01-09 19:13:00,
2014-01-09 13:23:00,43.2,42.4,32.28,ESE,102,1.0,5.0,97,0.00,,SKC,0.08,VWS V14.01,2014-01-09 19:23:00,
2014-01-09 13:30:00,44.4,43.6,32.28,East,100,0.0,5.0,97,0.00,,SKC,0.08,VWS V14.01,2014-01-09 19:30:00,
2014-01-09 13:35:00,43.7,42.9,32.28,East,101,0.0,5.0,97,0.00,,SKC,0.08,VWS V14.01,2014-01-09 19:35:00,
2014-01-09 13:45:00,44.2,43.4,32.28,East,101,1.0,5.0,97,0.00,,SKC,0.08,VWS V14.01,2014-01-09 19:45:00,
2014-01-09 13:51:00,44.2,43.4,32.28,East,101,0.0,5.0,97,0.00,,SKC,0.08,VWS V14.01,2014-01-09 19:51:00,
2014-01-09 14:00:00,44.7,43.9,17.72,East,100,1.0,2.0,97,0.00,,SKC,0.08,VWS V14.01,2014-01-09 20:00:00,
2014-01-09 14:01:00,44.2,43.4,32.28,East,101,0.0,5.0,97,0.00,,SKC,0.08,VWS V14.01,2014-01-09 20:01:00,
2014-01-09 14:07:00,44.1,43.3,32.28,East,101,3.0,5.0,97,0.00,,SKC,0.08,VWS V14.01,2014-01-09 20:07:00,
2014-01-09 14:14:00,44.2,43.4,32.28,East,101,1.0,5.0,97,0.00,,SKC,0.08,VWS V14.01,2014-01-09 20:14:00,
2014-01-09 14:20:00,44.4,43.6,32.28,East,100,0.0,5.0,97,0.00,,SKC,0.08,VWS V14.01,2014-01-09 20:20:00,
2014-01-09 14:26:00,44.3,43.5,32.28,East,100,0.0,5.0,97,0.00,,SKC,0.08,VWS V14.01,2014-01-09 20:26:00,
2014-01-09 14:30:00,44.9,44.1,17.72,East,100,1.0,5.0,97,0.00,,SKC,0.08,VWS V14.01,2014-01-09 20:30:00,
2014-01-09 14:31:00,44.4,43.6,32.28,East,100,0.0,5.0,97,0.00,,SKC,0.08,VWS V14.01,2014-01-09 20:31:00,
2014-01-09 14:39:00,44.6,43.8,17.72,East,100,1.0,2.0,97,0.00,,SKC,0.08,VWS V14.01,2014-01-09 20:39:00,
2014-01-09 14:52:00,44.8,44.0,17.72,East,100,1.0,2.0,97,0.00,,SKC,0.08,VWS V14.01,2014-01-09 20:52:00,
2014-01-09 15:00:00,45.0,43.9,17.72,East,100,0.0,6.0,96,0.00,,SKC,0.08,VWS V14.01,2014-01-09 21:00:00,
2014-01-09 15:01:00,44.7,43.9,17.72,East,100,0.0,2.0,97,0.00,,SKC,0.08,VWS V14.01,2014-01-09 21:01:00,
2014-01-09 15:07:00,44.7,43.9,17.72,East,100,2.0,3.0,97,0.00,,SKC,0.08,VWS V14.01,2014-01-09 21:07:00,
2014-01-09 15:17:00,44.7,43.9,17.72,East,100,2.0,5.0,97,0.00,,SKC,0.08,VWS V14.01,2014-01-09 21:17:00,
2014-01-09 15:26:00,44.9,44.1,17.72,East,100,0.0,5.0,97,0.00,,SKC,0.08,VWS V14.01,2014-01-09 21:26:00,
2014-01-09 15:30:00,45.0,43.9,17.72,East,100,1.0,5.0,96,0.00,,SKC,0.08,VWS V14.01,2014-01-09 21:30:00,
2014-01-09 15:39:00,45.0,44.2,17.72,East,100,0.0,5.0,97,0.00,,SKC,0.08,VWS V14.01,2014-01-09 21:39:00,
2014-01-09 15:45:00,44.9,44.1,17.72,East,100,1.0,6.0,97,0.00,,SKC,0.08,VWS V14.01,2014-01-09 21:45:00,
2014-01-09 16:00:00,44.8,43.7,17.72,East,100,1.0,5.0,96,0.00,,SKC,0.08,VWS V14.01,2014-01-09 22:00:00,
2014-01-09 16:04:00,45.0,43.9,17.72,East,100,1.0,2.0,96,0.00,,SKC,0.08,VWS V14.01,2014-01-09 22:04:00,
2014-01-09 16:14:00,45.0,43.9,17.72,East,100,1.0,5.0,96,0.00,,SKC,0.08,VWS V14.01,2014-01-09 22:14:00,
2014-01-09 16:26:00,45.0,43.9,17.72,East,100,0.0,5.0,96,0.00,,SKC,0.08,VWS V14.01,2014-01-09 22:26:00,
2014-01-09 16:30:00,44.6,43.5,17.72,ESE,102,5.0,7.0,96,0.00,,SKC,0.08,VWS V14.01,2014-01-09 22:30:00,
2014-01-09 16:31:00,45.0,43.9,17.72,East,100,1.0,5.0,96,0.00,,SKC,0.08,VWS V14.01,2014-01-09 22:31:00,
2014-01-09 16:39:00,45.0,43.9,17.72,East,100,1.0,3.0,96,0.00,,SKC,0.08,VWS V14.01,2014-01-09 22:39:00,
2014-01-09 16:51:00,45.0,43.9,17.72,East,100,3.0,3.0,96,0.00,,SKC,0.08,VWS V14.01,2014-01-09 22:51:00,
2014-01-09 17:00:00,44.3,43.2,17.72,East,86,1.0,10.0,96,0.00,,SKC,0.08,VWS V14.01,2014-01-09 23:00:00,
2014-01-09 17:30:00,44.3,43.2,17.72,East,96,1.0,9.0,96,0.00,,SKC,0.08,VWS V14.01,2014-01-09 23:30:00,
2014-01-09 17:36:00,44.5,43.4,17.72,East,92,3.0,10.0,96,0.00,,SKC,0.08,VWS V14.01,2014-01-09 23:36:00,
2014-01-09 17:43:00,44.5,43.4,17.72,ESE,111,3.0,10.0,96,0.00,,SKC,0.08,VWS V14.01,2014-01-09 23:43:00,
2014-01-09 18:00:00,44.2,43.4,17.72,East,92,2.0,8.0,97,0.00,,SKC,0.08,VWS V14.01,2014-01-10 00:00:00,
2014-01-09 18:21:00,44.3,43.2,17.72,East,88,1.0,7.0,96,0.00,,SKC,0.08,VWS V14.01,2014-01-10 00:21:00,
2014-01-09 18:27:00,44.3,43.2,17.72,East,94,2.0,7.0,96,0.00,,SKC,0.08,VWS V14.01,2014-01-10 00:27:00,
2014-01-09 18:30:00,44.2,43.4,17.72,NE,46,5.0,8.0,97,0.00,,SKC,0.08,VWS V14.01,2014-01-10 00:30:00,
2014-01-09 18:33:00,44.3,43.2,17.72,ENE,74,2.0,3.0,96,0.00,,SKC,0.08,VWS V14.01,2014-01-10 00:33:00,
2014-01-09 18:39:00,44.3,43.2,17.72,East,95,0.0,8.0,96,0.00,,SKC,0.08,VWS V14.01,2014-01-10 00:39:00,
2014-01-09 18:45:00,44.2,43.1,17.72,East,100,0.0,8.0,96,0.00,,SKC,0.08,VWS V14.01,2014-01-10 00:45:00,
2014-01-09 18:51:00,44.2,43.1,17.72,East,92,1.0,8.0,96,0.00,,SKC,0.08,VWS V14.01,2014-01-10 00:51:00,
2014-01-09 18:57:00,44.2,43.1,17.72,East,92,1.0,8.0,96,0.00,,SKC,0.08,VWS V14.01,2014-01-10 00:57:00,
2014-01-09 19:00:00,44.2,43.4,17.72,SE,126,4.0,9.0,97,0.00,,SKC,0.08,VWS V14.01,2014-01-10 01:00:00,
2014-01-09 19:03:00,44.2,43.4,17.72,East,92,2.0,5.0,97,0.00,,SKC,0.08,VWS V14.01,2014-01-10 01:03:00,
2014-01-09 19:09:00,44.2,43.4,17.72,East,93,0.0,7.0,97,0.00,,SKC,0.08,VWS V14.01,2014-01-10 01:09:00,
2014-01-09 19:15:00,44.2,43.4,17.72,East,94,2.0,7.0,97,0.00,,SKC,0.08,VWS V14.01,2014-01-10 01:15:00,
2014-01-09 19:21:00,44.2,43.4,17.72,East,98,3.0,8.0,97,0.00,,SKC,0.08,VWS V14.01,2014-01-10 01:21:00,
2014-01-09 19:27:00,44.2,43.4,17.72,ESE,103,3.0,8.0,97,0.00,,SKC,0.08,VWS V14.01,2014-01-10 01:27:00,
2014-01-09 19:30:00,44.2,43.4,17.72,East,97,3.0,10.0,97,0.00,,SKC,0.08,VWS V14.01,2014-01-10 01:30:00,
2014-01-09 19:33:00,44.2,43.4,17.72,ESE,103,3.0,8.0,97,0.00,,SKC,0.08,VWS V14.01,2014-01-10 01:33:00,
2014-01-09 19:39:00,44.2,43.4,17.72,East,100,3.0,8.0,97,0.00,,SKC,0.08,VWS V14.01,2014-01-10 01:39:00,
2014-01-09 19:45:00,44.2,43.4,17.72,ESE,103,3.0,8.0,97,0.00,,SKC,0.08,VWS V14.01,2014-01-10 01:45:00,
2014-01-09 19:51:00,44.2,43.4,17.72,East,98,5.0,8.0,97,0.00,,SKC,0.08,VWS V14.01,2014-01-10 01:51:00,
2014-01-09 19:57:00,44.2,43.4,17.72,ESE,111,2.0,8.0,97,0.00,,SKC,0.08,VWS V14.01,2014-01-10 01:57:00,
2014-01-09 20:00:00,44.3,43.5,17.72,East,101,3.0,7.0,97,0.00,,SKC,0.08,VWS V14.01,2014-01-10 02:00:00,
2014-01-09 20:03:00,44.2,43.4,17.72,East,100,5.0,10.0,97,0.00,,SKC,0.08,VWS V14.01,2014-01-10 02:03:00,
2014-01-09 20:09:00,44.2,43.4,17.72,East,98,3.0,10.0,97,0.00,,SKC,0.08,VWS V14.01,2014-01-10 02:09:00,
2014-01-09 20:15:00,44.2,43.4,17.72,ESE,113,1.0,10.0,97,0.00,,SKC,0.08,VWS V14.01,2014-01-10 02:15:00,
2014-01-09 20:21:00,44.2,43.4,17.72,East,88,3.0,10.0,97,0.00,,SKC,0.08,VWS V14.01,2014-01-10 02:21:00,
2014-01-09 20:27:00,44.2,43.4,17.72,ESE,107,5.0,10.0,97,0.00,,SKC,0.08,VWS V14.01,2014-01-10 02:27:00,
2014-01-09 20:30:00,44.5,43.7,17.72,East,101,2.0,7.0,97,0.00,,SKC,0.08,VWS V14.01,2014-01-10 02:30:00,
2014-01-09 20:33:00,44.2,43.4,17.72,East,101,5.0,5.0,97,0.00,,SKC,0.08,VWS V14.01,2014-01-10 02:33:00,
2014-01-09 20:39:00,44.2,43.4,17.72,ESE,106,4.0,6.0,97,0.00,,SKC,0.08,VWS V14.01,2014-01-10 02:39:00,
2014-01-09 20:45:00,44.3,43.5,17.72,ESE,120,4.0,7.0,97,0.00,,SKC,0.08,VWS V14.01,2014-01-10 02:45:00,
2014-01-09 20:51:00,44.3,43.5,17.72,ESE,115,7.0,7.0,97,0.00,,SKC,0.08,VWS V14.01,2014-01-10 02:51:00,
2014-01-09 20:57:00,44.3,43.5,17.72,East,101,2.0,7.0,97,0.00,,SKC,0.08,VWS V14.01,2014-01-10 02:57:00,
2014-01-09 21:00:00,44.6,43.8,17.72,East,90,6.0,8.0,97,0.00,,SKC,0.08,VWS V14.01,2014-01-10 03:00:00,
2014-01-09 21:03:00,44.3,43.5,17.72,East,101,2.0,6.0,97,0.00,,SKC,0.08,VWS V14.01,2014-01-10 03:03:00,
2014-01-09 21:09:00,44.4,43.6,17.72,East,101,0.0,6.0,97,0.00,,SKC,0.08,VWS V14.01,2014-01-10 03:09:00,
2014-01-09 21:15:00,44.4,43.6,17.72,East,101,3.0,6.0,97,0.00,,SKC,0.08,VWS V14.01,2014-01-10 03:15:00,
2014-01-09 21:21:00,44.4,43.6,17.72,East,101,2.0,6.0,97,0.00,,SKC,0.08,VWS V14.01,2014-01-10 03:21:00,
2014-01-09 21:27:00,44.5,43.7,17.72,East,101,2.0,7.0,97,0.00,,SKC,0.08,VWS V14.01,2014-01-10 03:27:00,
2014-01-09 21:30:00,44.9,44.1,17.72,SE,137,2.0,8.0,97,0.00,,SKC,0.08,VWS V14.01,2014-01-10 03:30:00,
2014-01-09 21:33:00,44.5,43.7,17.72,East,101,2.0,6.0,97,0.00,,SKC,0.08,VWS V14.01,2014-01-10 03:33:00,
2014-01-09 21:39:00,44.5,43.7,17.72,East,101,1.0,6.0,97,0.00,,SKC,0.08,VWS V14.01,2014-01-10 03:39:00,
2014-01-09 21:45:00,44.6,43.8,17.72,East,101,3.0,6.0,97,0.00,,SKC,0.08,VWS V14.01,2014-01-10 03:45:00,
2014-01-09 21:51:00,44.5,43.7,17.72,East,95,1.0,7.0,97,0.00,,SKC,0.08,VWS V14.01,2014-01-10 03:51:00,
2014-01-09 21:57:00,44.6,43.8,17.72,SE,128,3.0,7.0,97,0.00,,SKC,0.08,VWS V14.01,2014-01-10 03:57:00,
2014-01-09 22:00:00,45.2,44.4,17.72,East,94,2.0,8.0,97,0.00,,SKC,0.08,VWS V14.01,2014-01-10 04:00:00,
2014-01-09 22:03:00,44.6,43.8,17.72,SE,142,4.0,7.0,97,0.00,,SKC,0.08,VWS V14.01,2014-01-10 04:03:00,
2014-01-09 22:09:00,44.6,43.8,17.72,East,99,5.0,8.0,97,0.00,,SKC,0.08,VWS V14.01,2014-01-10 04:09:00,
2014-01-09 22:15:00,44.7,43.9,17.72,ESE,104,1.0,8.0,97,0.00,,SKC,0.08,VWS V14.01,2014-01-10 04:15:00,
2014-01-09 22:21:00,44.7,43.9,17.72,ESE,113,2.0,8.0,97,0.00,,SKC,0.08,VWS V14.01,2014-01-10 04:21:00,
2014-01-09 22:27:00,44.8,44.0,17.72,SE,127,2.0,8.0,97,0.00,,SKC,0.08,VWS V14.01,2014-01-10 04:27:00,
2014-01-09 22:30:00,45.6,44.8,17.72,ESE,115,0.0,7.0,97,0.00,,SKC,0.08,VWS V14.01,2014-01-10 04:30:00,
2014-01-09 22:33:00,44.9,44.1,17.72,ESE,109,3.0,5.0,97,0.00,,SKC,0.08,VWS V14.01,2014-01-10 04:33:00,
2014-01-09 22:39:00,44.9,44.1,17.72,ESE,110,0.0,6.0,97,0.00,,SKC,0.08,VWS V14.01,2014-01-10 04:39:00,
2014-01-09 22:45:00,44.9,44.1,17.72,ESE,114,4.0,6.0,97,0.00,,SKC,0.08,VWS V14.01,2014-01-10 04:45:00,
2014-01-09 22:51:00,45.1,44.3,17.72,East,98,1.0,8.0,97,0.00,,SKC,0.08,VWS V14.01,2014-01-10 04:51:00,
2014-01-09 22:57:00,45.1,44.3,17.72,ESE,114,1.0,8.0,97,0.00,,SKC,0.08,VWS V14.01,2014-01-10 04:57:00,
2014-01-09 23:00:00,46.1,45.3,17.72,East,101,2.0,6.0,97,0.00,,SKC,0.08,VWS V14.01,2014-01-10 05:00:00,
2014-01-09 23:01:00,45.2,44.4,17.72,East,94,2.0,8.0,97,0.00,,SKC,0.08,VWS V14.01,2014-01-10 05:01:00,
2014-01-09 23:06:00,45.3,44.5,17.72,ESE,105,0.0,7.0,97,0.00,,SKC,0.08,VWS V14.01,2014-01-10 05:06:00,
2014-01-09 23:12:00,45.4,44.6,17.72,East,95,0.0,7.0,97,0.00,,SKC,0.08,VWS V14.01,2014-01-10 05:12:00,
2014-01-09 23:15:00,45.4,44.6,17.72,East,95,1.0,7.0,97,0.00,,SKC,0.08,VWS V14.01,2014-01-10 05:15:00,
2014-01-09 23:21:00,45.4,44.6,17.72,ESE,107,3.0,7.0,97,0.00,,SKC,0.08,VWS V14.01,2014-01-10 05:21:00,
2014-01-09 23:28:00,45.5,44.7,17.72,ESE,105,0.0,7.0,97,0.00,,SKC,0.08,VWS V14.01,2014-01-10 05:28:00,
2014-01-09 23:30:00,46.6,45.8,17.72,East,101,1.0,5.0,97,0.00,,SKC,0.00,VWS V14.01,2014-01-10 05:30:00,
2014-01-09 23:31:00,45.6,44.8,17.72,ESE,115,0.0,7.0,97,0.00,,SKC,0.08,VWS V14.01,2014-01-10 05:31:00,
2014-01-09 23:37:00,45.7,44.9,17.72,ESE,115,2.0,4.0,97,0.00,,SKC,0.08,VWS V14.01,2014-01-10 05:37:00,
2014-01-09 23:43:00,45.8,45.0,17.72,ESE,107,0.0,4.0,97,0.00,,SKC,0.08,VWS V14.01,2014-01-10 05:43:00,
2014-01-09 23:49:00,46.0,45.2,17.72,East,101,2.0,6.0,97,0.00,,SKC,0.08,VWS V14.01,2014-01-10 05:49:00,
2014-01-09 23:55:00,46.1,45.3,17.72,East,101,1.0,6.0,97,0.00,,SKC,0.08,VWS V14.01,2014-01-10 05:55:00,